Time,TemperatureF,DewpointF,PressureIn,WindDirection,WindDirectionDegrees,WindSpeedMPH,WindSpeedGustMPH,Humidity,HourlyPrecipIn,Conditions,Clouds,dailyrainin,SoftwareType,DateUTC
2013-05-26 00:03:00,58.0,-99.9,-100.00,SE,131,9.0,-999.0,-999,0.00,,,0.44,,2013-05-26 05:03:00,
2013-05-26 00:12:00,58.0,-99.9,-100.00,SE,131,9.0,-999.0,-999,0.00,,,0.44,,2013-05-26 05:12:00,
2013-05-26 00:22:00,58.0,-99.9,-100.00,SE,131,9.0,-999.0,-999,0.00,,,0.44,,2013-05-26 05:22:00,
2013-05-26 00:30:00,58.0,-99.9,-100.00,SE,126,6.0,-999.0,-999,0.00,,,0.44,,2013-05-26 05:30:00,
2013-05-26 00:32:00,58.0,-99.9,-100.00,SE,138,6.0,-999.0,-999,0.00,,,0.44,,2013-05-26 05:32:00,
2013-05-26 00:42:00,58.0,-99.9,-100.00,SE,138,6.0,-999.0,-999,0.00,,,0.44,,2013-05-26 05:42:00,
2013-05-26 00:52:00,58.0,-99.9,-100.00,SE,126,6.0,-999.0,-999,0.00,,,0.44,,2013-05-26 05:52:00,
2013-05-26 01:01:00,58.0,-99.9,-100.00,SE,126,6.0,-999.0,-999,0.00,,,0.44,,2013-05-26 06:01:00,
2013-05-26 01:12:00,58.0,-99.9,-100.00,SE,126,6.0,-999.0,-999,0.00,,,0.44,,2013-05-26 06:12:00,
2013-05-26 01:22:00,58.0,-99.9,-100.00,SE,126,6.0,-999.0,-999,0.00,,,0.44,,2013-05-26 06:22:00,
2013-05-26 02:32:00,57.0,-99.9,-100.00,SE,136,7.0,-999.0,-999,0.00,,,0.44,,2013-05-26 07:32:00,
2013-05-26 02:42:00,57.0,-99.9,-100.00,SE,136,7.0,-999.0,-999,0.00,,,0.44,,2013-05-26 07:42:00,
2013-05-26 02:52:00,57.0,-99.9,-100.00,SE,136,7.0,-999.0,-999,0.00,,,0.44,,2013-05-26 07:52:00,
2013-05-26 03:02:00,56.0,-99.9,-100.00,SE,126,7.0,-999.0,-999,0.00,,,0.44,,2013-05-26 08:02:00,
2013-05-26 03:12:00,56.0,-99.9,-100.00,SE,126,7.0,-999.0,-999,0.00,,,0.44,,2013-05-26 08:12:00,
2013-05-26 03:22:00,56.0,-99.9,-100.00,SE,126,7.0,-999.0,-999,0.00,,,0.44,,2013-05-26 08:22:00,
2013-05-26 03:32:00,56.0,-99.9,-100.00,SE,132,7.0,-999.0,-999,0.00,,,0.44,,2013-05-26 08:32:00,
2013-05-26 03:42:00,56.0,-99.9,-100.00,SE,132,7.0,-999.0,-999,0.00,,,0.44,,2013-05-26 08:42:00,
2013-05-26 03:53:00,56.0,-99.9,-100.00,SE,133,7.0,-999.0,-999,0.00,,,0.44,,2013-05-26 08:53:00,
2013-05-26 04:02:00,56.0,-99.9,-100.00,SE,133,7.0,-999.0,-999,0.00,,,0.44,,2013-05-26 09:02:00,
2013-05-26 04:11:00,56.0,-99.9,-100.00,SE,133,7.0,-999.0,-999,0.00,,,0.44,,2013-05-26 09:11:00,
2013-05-26 04:22:00,56.0,-99.9,-100.00,SE,133,7.0,-999.0,-999,0.00,,,0.44,,2013-05-26 09:22:00,
2013-05-26 04:34:00,56.0,-99.9,-100.00,ESE,116,12.0,-999.0,-999,0.00,,,0.44,,2013-05-26 09:34:00,
2013-05-26 04:43:00,56.0,-99.9,-100.00,ESE,116,12.0,-999.0,-999,0.00,,,0.44,,2013-05-26 09:43:00,
2013-05-26 04:53:00,56.0,-99.9,-100.00,SE,135,8.0,-999.0,-999,0.00,,,0.44,,2013-05-26 09:53:00,
2013-05-26 05:00:00,56.0,-99.9,-100.00,ESE,118,9.0,-999.0,-999,0.00,,,0.44,,2013-05-26 10:00:00,
2013-05-26 05:03:00,56.0,-99.9,-100.00,SE,135,8.0,-999.0,-999,0.00,,,0.44,,2013-05-26 10:03:00,
2013-05-26 05:12:00,56.0,-99.9,-100.00,SE,135,8.0,-999.0,-999,0.00,,,0.44,,2013-05-26 10:12:00,
2013-05-26 05:23:00,56.0,-99.9,-100.00,SE,135,8.0,-999.0,-999,0.00,,,0.44,,2013-05-26 10:23:00,
2013-05-26 05:33:00,56.0,-99.9,-100.00,ESE,118,9.0,-999.0,-999,0.00,,,0.44,,2013-05-26 10:33:00,
2013-05-26 05:43:00,56.0,-99.9,-100.00,ESE,118,9.0,-999.0,-999,0.00,,,0.44,,2013-05-26 10:43:00,
2013-05-26 05:52:00,56.0,-99.9,-100.00,ESE,118,9.0,-999.0,-999,0.00,,,0.44,,2013-05-26 10:52:00,
2013-05-26 06:33:00,56.0,-99.9,-100.00,ESE,109,6.0,-999.0,-999,0.00,,,0.44,,2013-05-26 11:33:00,
2013-05-26 06:43:00,56.0,-99.9,-100.00,ESE,109,6.0,-999.0,-999,0.00,,,0.44,,2013-05-26 11:43:00,
2013-05-26 06:52:00,56.0,-99.9,-100.00,ESE,109,6.0,-999.0,-999,0.00,,,0.44,,2013-05-26 11:52:00,
2013-05-26 07:02:00,56.0,-99.9,-100.00,SE,128,7.0,-999.0,-999,0.00,,,0.44,,2013-05-26 12:02:00,
2013-05-26 07:12:00,56.0,-99.9,-100.00,SE,128,7.0,-999.0,-999,0.00,,,0.44,,2013-05-26 12:12:00,
2013-05-26 07:22:00,56.0,-99.9,-100.00,SE,128,7.0,-999.0,-999,0.00,,,0.44,,2013-05-26 12:22:00,
2013-05-26 07:32:00,56.0,-99.9,-100.00,SE,129,5.0,-999.0,-999,0.00,,,0.44,,2013-05-26 12:32:00,
2013-05-26 07:42:00,56.0,-99.9,-100.00,SE,129,5.0,-999.0,-999,0.00,,,0.44,,2013-05-26 12:42:00,
2013-05-26 07:52:00,56.0,-99.9,-100.00,SE,129,5.0,-999.0,-999,0.00,,,0.44,,2013-05-26 12:52:00,
2013-05-26 08:02:00,55.0,-99.9,-100.00,SE,125,7.0,-999.0,-999,0.04,,,0.48,,2013-05-26 13:02:00,
2013-05-26 08:11:00,55.0,-99.9,-100.00,SE,125,7.0,-999.0,-999,0.04,,,0.48,,2013-05-26 13:11:00,
2013-05-26 08:22:00,55.0,-99.9,-100.00,SE,125,7.0,-999.0,-999,0.04,,,0.48,,2013-05-26 13:22:00,
2013-05-26 08:30:00,58.0,-99.9,-100.00,SE,134,11.0,-999.0,-999,0.00,,,0.48,,2013-05-26 13:30:00,
2013-05-26 08:32:00,57.0,-99.9,-100.00,SE,129,8.0,-999.0,-999,0.04,,,0.48,,2013-05-26 13:32:00,
2013-05-26 08:42:00,57.0,-99.9,-100.00,SE,129,8.0,-999.0,-999,0.04,,,0.48,,2013-05-26 13:42:00,
2013-05-26 08:52:00,57.0,-99.9,-100.00,SE,129,8.0,-999.0,-999,0.04,,,0.48,,2013-05-26 13:52:00,
2013-05-26 09:02:00,58.0,-99.9,-100.00,SE,134,11.0,-999.0,-999,0.00,,,0.48,,2013-05-26 14:02:00,
2013-05-26 09:11:00,58.0,-99.9,-100.00,SE,134,11.0,-999.0,-999,0.00,,,0.48,,2013-05-26 14:11:00,
2013-05-26 09:22:00,58.0,-99.9,-100.00,SE,134,11.0,-999.0,-999,0.00,,,0.48,,2013-05-26 14:22:00,
2013-05-26 10:02:00,61.0,-99.9,-100.00,SE,136,9.0,-999.0,-999,0.00,,,0.48,,2013-05-26 15:02:00,
2013-05-26 10:12:00,61.0,-99.9,-100.00,SE,136,9.0,-999.0,-999,0.00,,,0.48,,2013-05-26 15:12:00,
2013-05-26 10:22:00,61.0,-99.9,-100.00,SE,136,9.0,-999.0,-999,0.00,,,0.48,,2013-05-26 15:22:00,
2013-05-26 10:33:00,63.0,-99.9,-100.00,ESE,110,5.0,-999.0,-999,0.00,,,0.48,,2013-05-26 15:33:00,
2013-05-26 10:43:00,63.0,-99.9,-100.00,ESE,110,5.0,-999.0,-999,0.00,,,0.48,,2013-05-26 15:43:00,
2013-05-26 10:53:00,63.0,-99.9,-100.00,East,90,6.0,-999.0,-999,0.00,,,0.42,,2013-05-26 15:53:00,
2013-05-26 11:03:00,63.0,-99.9,-100.00,East,90,6.0,-999.0,-999,0.00,,,0.42,,2013-05-26 16:03:00,
2013-05-26 11:12:00,63.0,-99.9,-100.00,East,90,6.0,-999.0,-999,0.00,,,0.42,,2013-05-26 16:12:00,
2013-05-26 11:23:00,63.0,-99.9,-100.00,East,90,6.0,-999.0,-999,0.00,,,0.42,,2013-05-26 16:23:00,
2013-05-26 11:33:00,65.0,-99.9,-100.00,SE,130,8.0,-999.0,-999,0.00,,,0.38,,2013-05-26 16:33:00,
2013-05-26 11:43:00,65.0,-99.9,-100.00,SE,130,8.0,-999.0,-999,0.00,,,0.38,,2013-05-26 16:43:00,
2013-05-26 11:53:00,65.0,-99.9,-100.00,SE,130,8.0,-999.0,-999,0.00,,,0.38,,2013-05-26 16:53:00,
2013-05-26 12:00:00,69.0,-99.9,-100.00,ESE,108,6.0,-999.0,-999,0.00,,,0.27,,2013-05-26 17:00:00,
2013-05-26 12:02:00,68.0,-99.9,-100.00,ESE,116,5.0,-999.0,-999,0.00,,,0.34,,2013-05-26 17:02:00,
2013-05-26 12:12:00,68.0,-99.9,-100.00,ESE,116,5.0,-999.0,-999,0.00,,,0.34,,2013-05-26 17:12:00,
2013-05-26 12:23:00,68.0,-99.9,-100.00,ESE,116,5.0,-999.0,-999,0.00,,,0.34,,2013-05-26 17:23:00,
2013-05-26 12:32:00,69.0,-99.9,-100.00,ESE,108,6.0,-999.0,-999,0.00,,,0.27,,2013-05-26 17:32:00,
2013-05-26 12:42:00,69.0,-99.9,-100.00,ESE,108,6.0,-999.0,-999,0.00,,,0.27,,2013-05-26 17:42:00,
2013-05-26 12:52:00,69.0,-99.9,-100.00,ESE,108,6.0,-999.0,-999,0.00,,,0.27,,2013-05-26 17:52:00,
2013-05-26 13:32:00,69.0,-99.9,-100.00,SE,135,11.0,-999.0,-999,0.00,,,0.05,,2013-05-26 18:32:00,
2013-05-26 13:42:00,69.0,-99.9,-100.00,SE,135,11.0,-999.0,-999,0.00,,,0.05,,2013-05-26 18:42:00,
2013-05-26 13:52:00,69.0,-99.9,-100.00,SE,135,11.0,-999.0,-999,0.00,,,0.05,,2013-05-26 18:52:00,
2013-05-26 14:02:00,70.0,-99.9,-100.00,SE,137,11.0,-999.0,-999,0.00,,,0.04,,2013-05-26 19:02:00,
2013-05-26 14:12:00,70.0,-99.9,-100.00,SE,137,11.0,-999.0,-999,0.00,,,0.04,,2013-05-26 19:12:00,
2013-05-26 14:22:00,70.0,-99.9,-100.00,SE,137,11.0,-999.0,-999,0.00,,,0.04,,2013-05-26 19:22:00,
2013-05-26 14:32:00,71.0,-99.9,-100.00,SE,129,11.0,-999.0,-999,0.00,,,0.04,,2013-05-26 19:32:00,
2013-05-26 14:42:00,71.0,-99.9,-100.00,SE,129,11.0,-999.0,-999,0.00,,,0.04,,2013-05-26 19:42:00,
2013-05-26 14:53:00,71.0,-99.9,-100.00,SE,144,11.0,-999.0,-999,0.00,,,0.04,,2013-05-26 19:53:00,
2013-05-26 15:02:00,71.0,-99.9,-100.00,SE,144,11.0,-999.0,-999,0.00,,,0.04,,2013-05-26 20:02:00,
2013-05-26 15:11:00,71.0,-99.9,-100.00,SE,144,11.0,-999.0,-999,0.00,,,0.04,,2013-05-26 20:11:00,
2013-05-26 15:22:00,71.0,-99.9,-100.00,SE,144,11.0,-999.0,-999,0.00,,,0.04,,2013-05-26 20:22:00,
2013-05-26 15:32:00,72.0,-99.9,-100.00,SE,135,10.0,-999.0,-999,0.00,,,0.04,,2013-05-26 20:32:00,
2013-05-26 15:42:00,72.0,-99.9,-100.00,SE,135,10.0,-999.0,-999,0.00,,,0.04,,2013-05-26 20:42:00,
2013-05-26 15:53:00,73.0,-99.9,-100.00,SE,137,10.0,-999.0,-999,0.00,,,0.04,,2013-05-26 20:53:00,
2013-05-26 16:02:00,73.0,-99.9,-100.00,SE,137,10.0,-999.0,-999,0.00,,,0.04,,2013-05-26 21:02:00,
2013-05-26 16:12:00,73.0,-99.9,-100.00,SE,137,10.0,-999.0,-999,0.00,,,0.04,,2013-05-26 21:12:00,
2013-05-26 16:23:00,73.0,-99.9,-100.00,SE,137,10.0,-999.0,-999,0.00,,,0.04,,2013-05-26 21:23:00,
2013-05-26 16:33:00,74.0,-99.9,-100.00,SE,136,10.0,-999.0,-999,0.00,,,0.04,,2013-05-26 21:33:00,
2013-05-26 16:43:00,74.0,-99.9,-100.00,SE,136,10.0,-999.0,-999,0.00,,,0.04,,2013-05-26 21:43:00,
2013-05-26 16:53:00,74.0,-99.9,-100.00,SE,140,7.0,-999.0,-999,0.00,,,0.04,,2013-05-26 21:53:00,
2013-05-26 17:03:00,74.0,-99.9,-100.00,SE,140,7.0,-999.0,-999,0.00,,,0.04,,2013-05-26 22:03:00,
2013-05-26 17:12:00,74.0,-99.9,-100.00,SE,140,7.0,-999.0,-999,0.00,,,0.04,,2013-05-26 22:12:00,
2013-05-26 17:23:00,74.0,-99.9,-100.00,SE,140,7.0,-999.0,-999,0.00,,,0.04,,2013-05-26 22:23:00,
2013-05-26 17:33:00,74.0,-99.9,-100.00,SE,135,8.0,-999.0,-999,0.00,,,0.04,,2013-05-26 22:33:00,
2013-05-26 17:43:00,74.0,-99.9,-100.00,SE,135,8.0,-999.0,-999,0.00,,,0.04,,2013-05-26 22:43:00,
2013-05-26 17:53:00,74.0,-99.9,-100.00,SE,135,8.0,-999.0,-999,0.00,,,0.04,,2013-05-26 22:53:00,
2013-05-26 18:02:00,75.0,-99.9,-100.00,SE,143,6.0,-999.0,-999,0.00,,,0.04,,2013-05-26 23:02:00,
2013-05-26 18:12:00,75.0,-99.9,-100.00,SE,143,6.0,-999.0,-999,0.00,,,0.04,,2013-05-26 23:12:00,
2013-05-26 18:22:00,75.0,-99.9,-100.00,SE,143,6.0,-999.0,-999,0.00,,,0.04,,2013-05-26 23:22:00,
2013-05-26 18:32:00,75.0,-99.9,-100.00,SSE,150,3.0,-999.0,-999,0.00,,,0.04,,2013-05-26 23:32:00,
2013-05-26 18:43:00,75.0,-99.9,-100.00,SSE,150,3.0,-999.0,-999,0.00,,,0.04,,2013-05-26 23:43:00,
2013-05-26 18:52:00,75.0,-99.9,-100.00,SSE,150,3.0,-999.0,-999,0.00,,,0.04,,2013-05-26 23:52:00,
2013-05-26 19:00:00,73.0,-99.9,-100.00,South,190,3.0,-999.0,-999,0.00,,,0.04,,2013-05-27 00:00:00,
2013-05-26 19:02:00,73.0,-99.9,-100.00,SSE,166,2.0,-999.0,-999,0.00,,,0.04,,2013-05-27 00:02:00,
2013-05-26 19:12:00,73.0,-99.9,-100.00,SSE,166,2.0,-999.0,-999,0.00,,,0.04,,2013-05-27 00:12:00,
2013-05-26 19:22:00,73.0,-99.9,-100.00,SSE,166,2.0,-999.0,-999,0.00,,,0.04,,2013-05-27 00:22:00,
2013-05-26 19:32:00,73.0,-99.9,-100.00,South,190,3.0,-999.0,-999,0.00,,,0.04,,2013-05-27 00:32:00,
2013-05-26 19:42:00,73.0,-99.9,-100.00,South,190,3.0,-999.0,-999,0.00,,,0.04,,2013-05-27 00:42:00,
2013-05-26 19:52:00,73.0,-99.9,-100.00,South,190,3.0,-999.0,-999,0.00,,,0.04,,2013-05-27 00:52:00,
2013-05-26 20:32:00,70.0,-99.9,-100.00,SSW,193,3.0,-999.0,-999,0.00,,,0.04,,2013-05-27 01:32:00,
2013-05-26 20:42:00,70.0,-99.9,-100.00,SSW,193,3.0,-999.0,-999,0.00,,,0.04,,2013-05-27 01:42:00,
2013-05-26 20:52:00,70.0,-99.9,-100.00,SSW,193,3.0,-999.0,-999,0.00,,,0.04,,2013-05-27 01:52:00,
2013-05-26 21:02:00,69.0,-99.9,-100.00,SSW,201,4.0,-999.0,-999,0.00,,,0.04,,2013-05-27 02:02:00,
2013-05-26 21:11:00,69.0,-99.9,-100.00,SSW,201,4.0,-999.0,-999,0.00,,,0.04,,2013-05-27 02:11:00,
2013-05-26 21:22:00,69.0,-99.9,-100.00,SSW,201,4.0,-999.0,-999,0.00,,,0.04,,2013-05-27 02:22:00,
2013-05-26 21:32:00,68.0,-99.9,-100.00,SW,222,1.0,-999.0,-999,0.00,,,0.04,,2013-05-27 02:32:00,
2013-05-26 21:43:00,68.0,-99.9,-100.00,SW,222,1.0,-999.0,-999,0.00,,,0.04,,2013-05-27 02:43:00,
2013-05-26 21:52:00,68.0,-99.9,-100.00,SW,222,1.0,-999.0,-999,0.00,,,0.04,,2013-05-27 02:52:00,
2013-05-26 22:02:00,68.0,-99.9,-100.00,SSW,210,3.0,-999.0,-999,0.00,,,0.04,,2013-05-27 03:02:00,
2013-05-26 22:11:00,68.0,-99.9,-100.00,SSW,210,3.0,-999.0,-999,0.00,,,0.04,,2013-05-27 03:11:00,
2013-05-26 22:22:00,68.0,-99.9,-100.00,SSW,210,3.0,-999.0,-999,0.00,,,0.04,,2013-05-27 03:22:00,
2013-05-26 22:33:00,68.0,-99.9,-100.00,SSW,213,3.0,-999.0,-999,0.00,,,0.04,,2013-05-27 03:33:00,
2013-05-26 22:43:00,68.0,-99.9,-100.00,SSW,213,3.0,-999.0,-999,0.00,,,0.04,,2013-05-27 03:43:00,
2013-05-26 22:54:00,68.0,-99.9,-100.00,SSW,213,3.0,-999.0,-999,0.00,,,0.04,,2013-05-27 03:54:00,
2013-05-26 23:03:00,68.0,-99.9,-100.00,South,191,2.0,-999.0,-999,0.00,,,0.04,,2013-05-27 04:03:00,
2013-05-26 23:12:00,68.0,-99.9,-100.00,South,191,2.0,-999.0,-999,0.00,,,0.04,,2013-05-27 04:12:00,
2013-05-26 23:23:00,68.0,-99.9,-100.00,South,191,2.0,-999.0,-999,0.00,,,0.04,,2013-05-27 04:23:00,
2013-05-26 23:33:00,68.0,-99.9,-100.00,ESE,105,4.0,-999.0,-999,0.00,,,0.04,,2013-05-27 04:33:00,
2013-05-26 23:43:00,68.0,-99.9,-100.00,ESE,105,4.0,-999.0,-999,0.00,,,0.04,,2013-05-27 04:43:00,
2013-05-26 23:53:00,68.0,-99.9,-100.00,ESE,105,4.0,-999.0,-999,0.00,,,0.04,,2013-05-27 04:53:00,